When you browse on this site, cookies collect data to enhance your experience and personalize the content and advertising you see.
Visit our Privacy Policy to learn more. By continuing to use the site, you agree to this use of cookies and data.
  • In Romania
  • List of Countries
  • For 7 days
  • Water Temperature
  • Satellite Maps
  • Weather Map
  • Weather Widgets
  • user-avatar
    Login

    Hourly Weather Arneguy

    Today, 24 April, Wednesday

    Time Temperature Precipitation Wind Pressure Humidity
    00:00 +5°C° 0 mm 2 mps 689 mmHg 92%
    01:00 +5°C° 0.4 mm 2 mps 690 mmHg 92%
    02:00 +5°C° 0.4 mm 2 mps 690 mmHg 92%
    03:00 +5°C° 0.4 mm 2 mps 690 mmHg 92%
    04:00 +5°C° 0 mm 2 mps 690 mmHg 92%
    05:00 +4°C° 0 mm 2 mps 690 mmHg 92%
    06:00 +4°C° 0 mm 3 mps 690 mmHg 94%
    07:00 +5°C° 0 mm 4 mps 691 mmHg 83%
    08:00 +6°C° 0 mm 5 mps 691 mmHg 73%
    09:00 +8°C° 0 mm 6 mps 691 mmHg 62%
    10:00 +8°C° 0 mm 7 mps 691 mmHg 60%
    11:00 +7°C° 0 mm 8 mps 691 mmHg 59%
    12:00 +8°C° 0 mm 9 mps 691 mmHg 57%
    13:00 +9°C° 0 mm 8 mps 691 mmHg 58%
    14:00 +10°C° 0 mm 7 mps 691 mmHg 59%
    15:00 +10°C° 0 mm 6 mps 691 mmHg 61%
    16:00 +9°C° 0.1 mm 6 mps 691 mmHg 66%
    17:00 +9°C° 0.1 mm 5 mps 690 mmHg 71%
    18:00 +9°C° 0.1 mm 5 mps 690 mmHg 77%
    19:00 +8°C° 0.9 mm 4 mps 691 mmHg 81%
    20:00 +8°C° 0.9 mm 4 mps 691 mmHg 86%
    21:00 +7°C° 0.9 mm 4 mps 691 mmHg 91%
    22:00 +8°C° 1.4 mm 3 mps 691 mmHg 92%
    23:00 +8°C° 1.4 mm 3 mps 692 mmHg 93%

    Tomorrow, 25 April, Thursday

    Time Temperature Precipitation Wind Pressure Humidity
    00:00 +8°C° 1.4 mm 3 mps 692 mmHg 94%
    01:00 +8°C° 1 mm 3 mps 692 mmHg 94%
    02:00 +8°C° 1 mm 3 mps 692 mmHg 93%
    03:00 +8°C° 1 mm 3 mps 693 mmHg 92%
    04:00 +8°C° 0.2 mm 3 mps 693 mmHg 91%
    05:00 +7°C° 0.2 mm 3 mps 693 mmHg 90%
    06:00 +5°C° 0.2 mm 3 mps 693 mmHg 88%
    07:00 +7°C° 0 mm 4 mps 694 mmHg 78%
    08:00 +8°C° 0 mm 5 mps 695 mmHg 68%
    09:00 +10°C° 0 mm 6 mps 696 mmHg 57%
    10:00 +10°C° 0.5 mm 6 mps 696 mmHg 58%
    11:00 +10°C° 0.5 mm 6 mps 696 mmHg 60%
    12:00 +10°C° 0.5 mm 6 mps 696 mmHg 61%
    13:00 +10°C° 0.6 mm 5 mps 696 mmHg 61%
    14:00 +12°C° 0.6 mm 5 mps 696 mmHg 60%
    15:00 +12°C° 0.6 mm 4 mps 696 mmHg 60%
    16:00 +11°C° 0.7 mm 4 mps 697 mmHg 64%
    17:00 +10°C° 0.7 mm 4 mps 697 mmHg 67%
    18:00 +9°C° 0.7 mm 3 mps 697 mmHg 71%
    19:00 +8°C° 0.6 mm 3 mps 698 mmHg 73%
    20:00 +8°C° 0.6 mm 3 mps 698 mmHg 74%
    21:00 +6°C° 0.6 mm 4 mps 699 mmHg 76%
    22:00 +5°C° 0.2 mm 3 mps 700 mmHg 77%
    23:00 +5°C° 0.2 mm 3 mps 700 mmHg 79%

    Day after tomorrow, 26 April, Friday

    Time Temperature Precipitation Wind Pressure Humidity
    00:00 +6°C° 0.2 mm 2 mps 700 mmHg 81%
    01:00 +5°C° 0 mm 2 mps 701 mmHg 82%
    02:00 +5°C° 0 mm 2 mps 701 mmHg 83%
    03:00 +4°C° 0 mm 2 mps 702 mmHg 84%
    04:00 +4°C° 0.5 mm 2 mps 702 mmHg 87%
    05:00 +5°C° 0.5 mm 2 mps 703 mmHg 89%
    06:00 +5°C° 0.5 mm 2 mps 703 mmHg 91%
    07:00 +6°C° 0.2 mm 2 mps 704 mmHg 89%
    08:00 +7°C° 0.2 mm 3 mps 705 mmHg 87%
    09:00 +8°C° 0.2 mm 3 mps 706 mmHg 85%
    10:00 +8°C° 0.3 mm 3 mps 706 mmHg 85%
    11:00 +8°C° 0.3 mm 3 mps 706 mmHg 84%
    12:00 +9°C° 0.3 mm 3 mps 707 mmHg 83%
    13:00 +9°C° 0.2 mm 3 mps 707 mmHg 80%
    14:00 +9°C° 0.2 mm 3 mps 707 mmHg 78%
    15:00 +10°C° 0.2 mm 3 mps 707 mmHg 76%
    16:00 +9°C° 0.1 mm 3 mps 707 mmHg 78%
    17:00 +8°C° 0.1 mm 2 mps 707 mmHg 80%
    18:00 +8°C° 0.1 mm 2 mps 708 mmHg 82%
    19:00 +8°C° 0 mm 1 mps 708 mmHg 86%
    20:00 +7°C° 0 mm 1 mps 708 mmHg 89%
    21:00 +6°C° 0 mm 1 mps 709 mmHg 93%
    22:00 +5°C° 0 mm 1 mps 709 mmHg 93%
    23:00 +5°C° 0 mm 1 mps 709 mmHg 93%

    27 April, Saturday

    Time Temperature Precipitation Wind Pressure Humidity
    00:00 +5°C° 0 mm 1 mps 709 mmHg 93%
    01:00 +5°C° 0 mm 1 mps 709 mmHg 93%
    02:00 +4°C° 0 mm 1 mps 709 mmHg 92%
    03:00 +4°C° 0 mm 1 mps 708 mmHg 91%
    04:00 +5°C° 0 mm 1 mps 708 mmHg 88%
    05:00 +6°C° 0 mm 1 mps 709 mmHg 86%
    06:00 +7°C° 0 mm 1 mps 709 mmHg 83%
    07:00 +8°C° 0 mm 1 mps 709 mmHg 81%
    08:00 +9°C° 0 mm 1 mps 709 mmHg 78%
    09:00 +10°C° 0 mm 2 mps 709 mmHg 75%
    10:00 +9°C° 0.1 mm 2 mps 710 mmHg 80%
    11:00 +9°C° 0.1 mm 2 mps 710 mmHg 84%
    12:00 +9°C° 0.1 mm 3 mps 710 mmHg 88%
    13:00 +9°C° 0.1 mm 3 mps 710 mmHg 85%
    14:00 +9°C° 0.1 mm 3 mps 710 mmHg 82%
    15:00 +9°C° 0.1 mm 3 mps 710 mmHg 78%
    16:00 +8°C° 0.1 mm 3 mps 710 mmHg 80%
    17:00 +8°C° 0.1 mm 3 mps 710 mmHg 81%
    18:00 +7°C° 0.1 mm 2 mps 710 mmHg 82%
    19:00 +6°C° 0 mm 2 mps 710 mmHg 86%
    20:00 +5°C° 0 mm 2 mps 711 mmHg 90%
    21:00 +5°C° 0 mm 1 mps 711 mmHg 94%
    22:00 +5°C° 0 mm 1 mps 711 mmHg 94%
    23:00 +4°C° 0 mm 1 mps 710 mmHg 95%

    28 April, Sunday

    Time Temperature Precipitation Wind Pressure Humidity
    00:00 +4°C° 0 mm 1 mps 710 mmHg 95%
    01:00 +3°C° 0 mm 1 mps 710 mmHg 95%
    02:00 +3°C° 0 mm 1 mps 709 mmHg 94%
    03:00 +3°C° 0 mm 1 mps 709 mmHg 94%
    04:00 +3°C° 0 mm 1 mps 709 mmHg 92%
    05:00 +3°C° 0 mm 1 mps 709 mmHg 91%
    06:00 +4°C° 0 mm 1 mps 709 mmHg 90%
    07:00 +5°C° 0 mm 2 mps 709 mmHg 80%
    08:00 +7°C° 0 mm 2 mps 709 mmHg 70%
    09:00 +9°C° 0 mm 3 mps 709 mmHg 60%
    10:00 +10°C° 0 mm 3 mps 709 mmHg 57%
    11:00 +11°C° 0 mm 3 mps 708 mmHg 54%
    12:00 +13°C° 0 mm 3 mps 708 mmHg 50%
    13:00 +13°C° 0 mm 3 mps 708 mmHg 52%
    14:00 +13°C° 0 mm 3 mps 707 mmHg 53%
    15:00 +13°C° 0 mm 3 mps 707 mmHg 55%
    16:00 +12°C° 0 mm 3 mps 706 mmHg 61%
    17:00 +11°C° 0 mm 3 mps 706 mmHg 67%
    18:00 +10°C° 0 mm 2 mps 706 mmHg 72%
    19:00 +8°C° 0 mm 2 mps 706 mmHg 80%
    20:00 +7°C° 0 mm 1 mps 705 mmHg 87%
    21:00 +6°C° 0 mm 1 mps 705 mmHg 94%
    22:00 +5°C° 0 mm 1 mps 705 mmHg 93%
    23:00 +5°C° 0 mm 1 mps 705 mmHg 93%

    29 April, Monday

    Time Temperature Precipitation Wind Pressure Humidity
    00:00 +5°C° 0 mm 1 mps 704 mmHg 92%
    01:00 +5°C° 0 mm 1 mps 704 mmHg 89%
    02:00 +5°C° 0 mm 1 mps 703 mmHg 87%
    03:00 +5°C° 0 mm 1 mps 703 mmHg 84%
    04:00 +5°C° 0 mm 1 mps 703 mmHg 81%
    05:00 +6°C° 0 mm 1 mps 703 mmHg 78%
    06:00 +6°C° 0 mm 1 mps 702 mmHg 75%
    07:00 +9°C° 0 mm 1 mps 703 mmHg 68%
    08:00 +13°C° 0 mm 1 mps 703 mmHg 62%
    09:00 +16°C° 0 mm 1 mps 703 mmHg 55%
    10:00 +19°C° 0 mm 1 mps 703 mmHg 51%
    11:00 +20°C° 0 mm 1 mps 702 mmHg 47%
    12:00 +22°C° 0 mm 1 mps 702 mmHg 44%
    13:00 +22°C° 0 mm 1 mps 701 mmHg 44%
    14:00 +22°C° 0 mm 1 mps 701 mmHg 44%
    15:00 +23°C° 0 mm 1 mps 700 mmHg 44%
    16:00 +21°C° 0 mm 1 mps 700 mmHg 52%
    17:00 +20°C° 0 mm 1 mps 699 mmHg 59%
    18:00 +18°C° 0 mm 1 mps 698 mmHg 67%
    19:00 +15°C° 0 mm 1 mps 698 mmHg 70%
    20:00 +14°C° 0 mm 2 mps 698 mmHg 73%
    21:00 +12°C° 0 mm 2 mps 698 mmHg 76%
    22:00 +12°C° 0 mm 2 mps 698 mmHg 74%
    23:00 +10°C° 0 mm 2 mps 697 mmHg 73%
    Show more